Regional Weather Roundup
Issued by NWS Midland/Odessa, TX

Skip options and go directly to product.
Home | Oldest Version | Previous Version | Current Version | All | Text Only | Save Text | Print | Product List | Glossary Off

Skip product version selection by date and time.   

685
ASUS44 KMAF 270810
RWRMAF
MIDLAND AREA WEATHER ROUNDUP
NATIONAL WEATHER SERVICE MIDLAND TX
300 AM CDT MON MAR 27 2017

...IN SOUTHWEST TEXAS AND SOUTHEAST NEW MEXICO...

CITY           SKY/WX    TMP DP  RH WIND       PRES   REMARKS
ALPINE         CLEAR     48  22  36 W8        30.06S
ANDREWS        FAIR      51  29  43 N7        29.92S
ARTESIA        CLEAR     50  18  27 NW8       29.94R
BIG SPRING     CLOUDY    59  32  36 NE10      29.91S
CARLSBAD       CLEAR     57  18  21 NE14      29.91R
DRYDEN           N/A     63  24  22 N7        29.87S
FORT STOCKTON  CLEAR     63  25  23 SW10      29.91F
GUAD PASS        N/A    N/A N/A N/A MISG        N/A
HOBBS          CLEAR     46  27  46 NW8       29.97R
MARFA          CLEAR     42  19  39 N5        30.04S WCI  39
MIDLAND AIRPK  PTCLDY    57  22  25 N8        29.90R
MIDLAND INTL   CLEAR     56  21  25 NW9       29.89R
ODESSA           N/A     57  19  22 N10       29.90R
PECOS          PTCLDY    54  24  30 W6        29.90S
PRESIDIO       FAIR      67  24  20 NW7       29.95R
SEMINOLE       PTCLDY    51  35  54 CALM      29.96R
SNYDER         CLEAR     55  38  52 NE13      29.89S
WINK           CLEAR     51  20  29 N5        29.88S
$$
...OTHER STATIONS IN TEXAS...

CITY           SKY/WX    TMP DP  RH WIND       PRES   REMARKS
ABILENE        PTCLDY    55  40  56 N10       29.88R
AMARILLO       CLEAR     38  36  92 NW13      29.96S WCI  30
AUSTIN         CLOUDY    73  67  81 S8        29.85R
BROWNSVILLE    CLEAR     72  69  90 S7        29.79F
CORPUS CHRISTI CLOUDY    73  70  90 SE14      29.81F
DALLAS FTW     CLEAR     70  65  84 S17       29.76R
DEL RIO        CLEAR     69  65  86 NE7       29.82R
EL PASO        CLEAR     61  19  19 VRB3      29.97S
HOUSTON INT    CLOUDY    72  67  84 S8        29.88F
LUBBOCK        CLEAR     45  36  70 N13       29.93S WCI  39
SAN ANGELO     CLEAR     47  32  56 S5        29.84S
SAN ANTONIO    CLOUDY    72  66  81 S10       29.84F
WACO           CLEAR     64  62  93 S10       29.82S
WICHITA FALLS  NOT AVBL
$$
...OTHER LOCATIONS IN NEW MEXICO...

CITY           SKY/WX    TMP DP  RH WIND       PRES   REMARKS
ALAMAGORDO     CLEAR     48  16  27 CALM      29.98S
ALBUQUERQUE    PTCLDY    48  24  39 CALM      30.02S
CANNON AFB     CLEAR     41  39  95 CALM      29.98R
CLOVIS         CLEAR     39  32  75 N12       29.97S WCI  32
HOLLOMAN AFB   CLEAR     50  17  26 S6        30.00R
ROSWELL        CLEAR     51  19  28 N8          N/A
RUIDOSO        MOCLDY    41  14  33 SW8       30.08F WCI  36
SANTA FE       CLOUDY    34  24  67 NE8       30.03S WCI  27
TRUTH OR CONSE CLEAR     53  16  23 NW10      29.99S
TUCUMCARI      CLEAR     40  32  73 CALM      29.98R
$$

  • National Weather Service
  • Southern Region Headquarters
  • 819 Taylor Street, Room 10A06
  • Fort Worth, TX 76102
  • Page Author: NWS Fort Worth
  • Web Master: SR-SRH.Webmaster@noaa.gov
  •  
  • Page last modified: 30-Sep-2016 6:36 PM UTC
USA.gov is the U.S. government's official web portal to all federal, state and local government web resources and services.